Location: Unspecified
(43.4354°N, 0.0000°E)
Time: 18:13:37
(UTC+00:00)

Vanguard 2 Rocket - Pass Details

Date: 18 June 2019
Orbit: 553 x 3327 km, 32.9° (Epoch: 23 August)

Event Time Altitude Azimuth Distance (km) Brightness Sun altitude
Rises 05:53:13 0° 277° (W) 6,935 10.8 14.5°
Reaches altitude 10° 05:59:26 10° 264° (W) 6,156 10.6 15.6°
Maximum altitude 06:12:07 21° 224° (SW) 5,330 10.4 17.8°
Drops below altitude 10° 06:24:23 10° 183° (S) 5,853 10.9 19.9°
Sets 06:30:12 0° 169° (S) 6,507 11.2 21.0°
